This is the latest recevied weather packets stored in our database for station/object N2ZVN. If no packets are shown the sender has not sent any weather packets the latest 10 day(s).
| Time | Temp. | Humidity | Pressure | Rain* | Wind** | Luminosity | Snow |
|---|---|---|---|---|---|---|---|
| 1777075862 | 7.78° C | 45% | 1012.5 hPa | 0 mm | - | 1 W/m² | - |
| 1777075562 | 7.78° C | 45% | 1012.6 hPa | 0 mm | - | 2 W/m² | - |
| 1777075259 | 7.78° C | 45% | 1012.6 hPa | 0 mm | - | 3 W/m² | - |
| 1777074955 | 7.78° C | 43% | 1012.8 hPa | 0 mm | - | 4 W/m² | - |
| 1777074651 | 7.78° C | 44% | 1013.1 hPa | 0 mm | - | 6 W/m² | - |
| 1777074346 | 7.78° C | 45% | 1013 hPa | 0 mm | - | 9 W/m² | - |
| 1777074044 | 7.78° C | 43% | 1012.6 hPa | 0 mm | - | 12 W/m² | - |
| 1777073738 | 7.78° C | 43% | 1012.7 hPa | 0 mm | - | 15 W/m² | - |
| 1777073435 | 7.78° C | 43% | 1012.5 hPa | 0 mm | - | 19 W/m² | - |
| 1777073130 | 7.78° C | 44% | 1012.5 hPa | 0 mm | - | 21 W/m² | - |
| 1777072828 | 7.78° C | 43% | 1012.4 hPa | 0 mm | - | 24 W/m² | - |
| 1777072527 | 8.33° C | 42% | 1012.4 hPa | 0 mm | - | 28 W/m² | - |
| 1777072226 | 8.33° C | 41% | 1012.3 hPa | 0 mm | - | 33 W/m² | - |
| 1777071922 | 8.33° C | 40% | 1012.5 hPa | 0 mm | - | 36 W/m² | - |
| 1777071619 | 8.33° C | 41% | 1012.6 hPa | 0 mm | - | 40 W/m² | - |
| 1777071315 | 8.33° C | 40% | 1012.4 hPa | 0 mm | - | 46 W/m² | - |
| 1777071009 | 8.33° C | 41% | 1012.5 hPa | 0 mm | - | 52 W/m² | - |
| 1777070706 | 8.33° C | 41% | 1012.3 hPa | 0 mm | - | 57 W/m² | - |
| 1777070403 | 8.33° C | 41% | 1012.5 hPa | 0 mm | - | 60 W/m² | - |
| 1777070102 | 8.33° C | 40% | 1012.5 hPa | 0 mm | - | 68 W/m² | - |
| 1777069797 | 8.33° C | 41% | 1012.4 hPa | 0 mm | - | 69 W/m² | - |
| 1777069496 | 8.33° C | 41% | 1012.7 hPa | 0 mm | - | 69 W/m² | - |
| 1777069194 | 8.33° C | 40% | 1012.7 hPa | 0 mm | - | 63 W/m² | - |
| 1777068889 | 8.33° C | 40% | 1012.6 hPa | 0 mm | - | 62 W/m² | - |
| 1777068585 | 8.89° C | 41% | 1012.5 hPa | 0 mm | - | 61 W/m² | - |
* Rain latest hour (hover to see other rain measurements)
** Current wind speed in m/s (hover to see current wind gust speed)